This is the latest recevied weather packets stored in our database for station/object KB2EAR-13. If no packets are shown the sender has not sent any weather packets the latest 10 day(s).
| Time | Temp. | Humidity | Pressure | Rain* | Wind** | Luminosity | Snow |
|---|---|---|---|---|---|---|---|
| 1777520118 | 8.89° C | 93% | 1010.4 hPa | 1.78 mm | - | - | - |
| 1777519818 | 8.89° C | 93% | 1010.5 hPa | 2.03 mm | - | - | - |
| 1777519518 | 8.89° C | 93% | 1010.5 hPa | 2.29 mm | - | - | - |
| 1777519218 | 8.89° C | 93% | 1010.7 hPa | 2.29 mm | - | - | - |
| 1777518918 | 8.89° C | 93% | 1010.8 hPa | 2.54 mm | - | - | - |
| 1777518618 | 8.89° C | 93% | 1010.5 hPa | 2.54 mm | - | - | - |
| 1777518318 | 8.89° C | 92% | 1010.5 hPa | 2.79 mm | - | - | - |
| 1777518018 | 9.44° C | 92% | 1010.4 hPa | 3.05 mm | - | - | - |
| 1777517718 | 9.44° C | 92% | 1010.5 hPa | 3.56 mm | - | - | - |
| 1777517418 | 9.44° C | 92% | 1010.4 hPa | 3.56 mm | - | - | - |
| 1777517118 | 9.44° C | 92% | 1010.6 hPa | 3.3 mm | - | - | - |
| 1777516818 | 9.44° C | 92% | 1010.8 hPa | 3.05 mm | - | - | - |
| 1777516675 | 9.44° C | 92% | 1011.1 hPa | 3.05 mm | - | - | - |
| 1777516518 | 9.44° C | 92% | 1011.1 hPa | 3.05 mm | - | - | - |
| 1777516218 | 9.44° C | 92% | 1011.2 hPa | 2.79 mm | - | - | - |
| 1777515918 | 9.44° C | 91% | 1011.5 hPa | 2.54 mm | - | - | - |
| 1777515618 | 9.44° C | 91% | 1011.4 hPa | 2.29 mm | - | - | - |
| 1777515318 | 9.44° C | 91% | 1011.5 hPa | 2.03 mm | - | - | - |
| 1777515018 | 10° C | 91% | 1011.3 hPa | 2.03 mm | - | - | - |
| 1777514718 | 10° C | 91% | 1011.4 hPa | 1.78 mm | - | - | - |
| 1777514418 | 10° C | 91% | 1011.6 hPa | 1.52 mm | - | - | - |
| 1777514118 | 10° C | 91% | 1011.5 hPa | 1.02 mm | - | - | - |
| 1777513818 | 10° C | 90% | 1011.4 hPa | 0.76 mm | - | - | - |
| 1777513518 | 10° C | 90% | 1011.5 hPa | 0.76 mm | - | - | - |
| 1777513218 | 10° C | 90% | 1011.5 hPa | 0.51 mm | - | - | - |
* Rain latest hour (hover to see other rain measurements)
** Current wind speed in m/s (hover to see current wind gust speed)